Location: Brantley
(31.5822°N, 86.2569°W)
Time: 20:42:05
(UTC+00:00)

Transit 2A Rocket - Pass Details

Date: 18 February 2026
Orbit: 583 x 900 km, 66.7° (Epoch: 8 March)

Event Time Altitude Azimuth Distance (km) Brightness Sun altitude
Rises 07:29:43 0° 329° (NNW) 3,276 - -61.1°
Reaches altitude 10° 07:32:16 10° 325° (NW) 2,292 - -60.6°
Maximum altitude 07:37:19 52° 249° (WSW) 875 - -59.8°
Drops below altitude 10° 07:41:54 10° 173° (S) 2,079 - -59.0°
Sets 07:44:08 0° 168° (SSE) 2,942 - -58.6°
